Weather in Tangier

Morocco     35°45′39″N   5°48′33″W
temp.,
°C
wind,
m/s
gust,
m/s
humid.,
%
clouds,
%
prec.,
mm/h
press.,
hPa
HPBL,
m
7 march, sun
sun701:00+14e8138953 0.1 1017605
04:00+14e5108934 1.4 1016639
07:00+13e369059 2.0 1016299
10:00+13ne139091 3.8 1017234
13:00+14e119095 8.1 1017174
16:00+16wsw017491 1.3 1015292
19:00+14nw248059 1.9 1014304
22:00+13wsw11850 0.0 101653
8 march, mon
mon801:00+12ssw34860 0.0 1016123
04:00+11ssw47890 0.0 1015225
07:00+11ssw59920 0.0 1015319
10:00+13sw588770 0.3 1016638
13:00+15wsw796885 0.6 10161131
16:00+15w676897 0.1 10151142
19:00+12w467586 0.1 1015632
22:00+12wsw367458 0.0 1016659
9 march, tue
tue901:00+12wsw477375 0.0 1016640
04:00+11wsw367553 0.0 1016437
07:00+10ssw357632 0.0 1016250
10:00+13sw35660 0.0 1018499
13:00+16w33566 0.0 10181160
16:00+15wnw325783 0.1 10171075
19:00+13n236952 0.1 1018375
22:00+11ene23780 0.0 1020188
10 march, wed
wed1001:00+11ene35850 0.0 1021326
04:00+10e35860 0.0 1021227
07:00+10e34840 0.0 1022197
10:00+13ene47750 0.0 1024549
13:00+16ene67640 0.0 1024838
16:00+17ene68640 0.0 1023786
19:00+14ene49740 0.0 1023434
22:00+12ene47810 0.0 1026241
11 march, thu
thu1101:00+11ene48830 0.0 1026302
04:00+11e58890 0.0 1026345
07:00+11e47890 0.0 1026315
10:00+14e48780 0.0 1027544
13:00+17ene67620 0.0 1027755
16:00+17ene68570 0.0 1025687
19:00+14ene47664 0.0 1024275
22:00+12ene35750 0.0 1025177